{"data":{"norad_id":55331,"epoch":"2026-05-24T22:30:44.400096Z","epoch_age_seconds":79982,"freshness":"FRESH","line1":"1 55331U 23013A   26144.93801389 -.00000415  00000+0 -55442-5 0  9990","line2":"2 55331  43.0018 232.8840 0001317 270.2045  89.8656 15.27576048184419","mean_motion":15.27576048,"eccentricity":0.0001317,"inclination_deg":43.0018,"raan_deg":232.884,"arg_perigee_deg":270.2045,"mean_anomaly_deg":89.8656,"bstar":-5.5442e-6,"rev_number":18441,"period_min":94.266992591651,"perigee_km":482.15731000754,"apogee_km":483.96454954224,"semimajor_km":6861.1979297749,"source":"CELESTRAK","updated_at":"2026-05-25T13:38:17.759357Z"}}